Regional Weather Roundup
Issued by NWS Albany, NY

Home | Current Version | Previous Version | Text Only | Print | Product List | Glossary On
Versions: 1 2 3 4 5 6 7 8 9 10 11 12 13 14 15 16 17 18 19 20 21 22 23 24 25 26 27 28 29 30 31 32 33 34 35 36 37 38 39 40 41 42 43 44 45 46 47 48 49 50
000
ASUS41 KALY 302310
RWRALY

NEW YORK STATE HOURLY WEATHER ROUNDUP
NATIONAL WEATHER SERVICE ALBANY NY
600 PM EST FRI JAN 30 2015

NOTE: "FAIR" INDICATES FEW OR NO CLOUDS BELOW 12,000 FEET WITH NO
SIGNIFICANT WEATHER AND/OR NO OBSTRUCTIONS TO VISIBILITY.

NYZ032-033-038>043-046>054-057>066-NYZ062>081-310000-
EAST


CITY           SKY/WX    TMP DP  RH WIND       PRES   REMARKS
ALBANY         MOCLDY    20   9  62 W23G43    29.98R WCI   3
GLENS FALLS    CLOUDY    19   6  57 NW14G24   29.97R WCI   6
POUGHKEEPSIE   PTCLDY    29  10  45 NW22G30   29.93R WCI  15
NEWBURGH       PTCLDY    27  16  63 NW23G35   29.92R WCI  12
MONTGOMERY     CLOUDY    26  12  55 NW18G25   29.94R WCI  13
WHITE PLAINS   PTCLDY    29  14  53 NW22G35   29.86R WCI  15
ISLIP          MOCLDY    33  17  51 NW21      29.84R WCI  21
NEW YORK CITY  PTCLDY    32  17  54 NW28G33   29.91R WCI  18
CENTRAL PARK   CLOUDY    32  13  45 NW17G29   29.93R WCI  21
$$

NYZ005>009-017-018-044>046-055-056-310000-
CENTRAL


CITY           SKY/WX    TMP DP  RH WIND       PRES   REMARKS
FULTON         CLOUDY    17   6  62 NW18G25   30.18R WCI   1
SYRACUSE       FLURRIES  15  10  80 NW14      30.15R WCI   0
ROME           CLOUDY    11   3  70 NW12      30.15R WCI  -3
ELMIRA         CLOUDY    15   4  61 NW9G26    30.16R WCI   3
BINGHAMTON     LGT SNOW  11   6  81 NW13      30.03R VSB 1   WCI  -4
MONTICELLO     MOCLDY    16   9  73 NW20G38   29.94R WCI  -1
$$

NYZ026>034-041>043-310000-
NORTH


CITY           SKY/WX    TMP DP  RH WIND       PRES   REMARKS
WATERTOWN      CLEAR     11  -1  58 N3        30.20R
FORT DRUM      NOT AVBL
MASSENA        CLEAR      9  -3  58 W8        30.17R WCI  -3
SARANAC LAKE   CLOUDY     5  -1  76 VRB5      29.95R HAZE    WCI  -4
PLATTSBURGH    CLOUDY    13   1  59 NW9G21    30.05R WCI   1
$$

NYZ001>004-010>016-019>021-310000-
WEST


CITY           SKY/WX    TMP DP  RH WIND       PRES   REMARKS
NIAGARA FALLS  MOCLDY    12   3  67 NW10      30.31R WCI  -1
BUFFALO        CLOUDY    12   0  58 NW14G21   30.30R WCI  -3
DUNKIRK        PTCLDY    12   3  67 W12G24    30.34R WCI  -2
JAMESTOWN      CLOUDY     9   1  72 NW13      30.22R WCI  -7
WELLSVILLE     PTCLDY     8   0  69 NW25G35   30.12R WCI -13
ROCHESTER      FLURRIES  13   5  70 NW13      30.25R WCI  -2
PENN YAN       LGT SNOW  12   3  67 NW16G29   30.18R WCI  -5
$$

             KEY
       WCI = WIND CHILL INDEX
       VSB = VISIBILITY
       HX  = HEAT INDEX
$$


USA.gov is the U.S. government's official web portal to all federal, state and local government web resources and services.